This demonstration page uses our WeatherBlox Daily Observations layout. Learn more.

Left ArrowRight Arrow

34.02893, -84.19858

Hourly Observations for November 29, 2019

Temp ( °F °C ) Dew Point ( °F °C ) Humidity (%) Winds ( mph kmh ) Pressure ( in mb ) Visibility ( mi km ) Precip ( " mm )
12:53 am 00:53 Cloudy 49 9.4 33 0.6 55 55 NW 3 6 30.24 1024 10 16 0.00 0.00
1:53 am 01:53 Mostly Cloudy 49 9.4 33 0.6 55 55 NNW 6 9 30.22 1023 10 16 0.00 0.00
2:53 am 02:53 Cloudy 50 10 33 0.6 52 52 N 3 6 30.24 1024 10 16 0.00 0.00
3:53 am 03:53 Cloudy 50 10 34 1.1 54 54 N 6 9 30.25 1025 10 16 0.00 0.00
4:53 am 04:53 Cloudy 50 10 35 1.7 57 57 N 3 6 30.25 1024 10 16 0.00 0.00
5:53 am 05:53 Cloudy 49 9.4 37 2.8 64 64 Calm 30.25 1024 10 16 0.00 0.00
6:53 am 06:53 Partly Cloudy 47 8.3 36 2.2 66 66 Calm 30.25 1024 10 16 0.00 0.00
7:53 am 07:53 Cloudy 51 10.6 37 2.8 59 59 N 3 6 30.27 1025 10 16 0.00 0.00
8:53 am 08:53 Cloudy 52 11.1 36 2.2 55 55 Calm 30.29 1026 10 16 0.00 0.00
9:53 am 09:53 Cloudy 54 12.2 34 1.1 47 47 VRB 5 7 30.29 1026 10 16 0.00 0.00
10:53 am 10:53 Partly Cloudy 56 13.3 35 1.7 46 46 VRB 6 9 30.29 1026 10 16 0.00 0.00
11:53 am 11:53 Mostly Cloudy 59 15 35 1.7 41 41 SW 6 9 30.25 1024 10 16 0.00 0.00
12:53 pm 12:53 Cloudy 61 16.1 36 2.2 39 39 WSW 5 7 30.22 1023 10 16 0.00 0.00
1:53 pm 13:53 Cloudy 63 17.2 35 1.7 35 35 Calm 30.17 1022 10 16 0.00 0.00
2:53 pm 14:53 Cloudy 64 17.8 35 1.7 34 34 Calm 30.16 1021 10 16 0.00 0.00
3:53 pm 15:53 Cloudy 65 18.3 37 2.8 36 36 WNW 5 7 30.15 1021 10 16 0.00 0.00
4:53 pm 16:53 Cloudy 64 17.8 39 3.9 40 40 NW 7 11 30.15 1021 10 16 0.00 0.00
5:53 pm 17:53 Cloudy 62 16.7 39 3.9 43 43 NW 6 9 30.15 1021 10 16 0.00 0.00
6:05 pm 18:05 Mostly Cloudy 62 16.7 39 3.9 43 43 WNW 5 7 30.13 1020 10 16 0.00 0.00
6:53 pm 18:53 Mostly Cloudy 59 15 40 4.4 49 49 NW 6 9 30.16 1021 10 16 0.00 0.00
7:13 pm 19:13 Partly Cloudy 57 13.9 40 4.4 53 53 WNW 5 7 30.14 1021 10 16 0.00 0.00
7:53 pm 19:53 Clear 56 13.3 41 5 57 57 Calm 30.14 1021 10 16 0.00 0.00
8:53 pm 20:53 Mostly Clear 57 13.9 40 4.4 53 53 Calm 30.13 1020 10 16 0.00 0.00
9:53 pm 21:53 Clear 51 10.6 41 5 69 69 Calm 30.13 1020 10 16 0.00 0.00
10:53 pm 22:53 Clear 51 10.6 42 5.6 71 71 Calm 30.12 1020 10 16 0.00 0.00
11:53 pm 23:53 Clear 50 10 41 5 71 71 Calm 30.09 1019 10 16 0.00 0.00

Powered by AerisWeather